TimeAKST,TemperatureF,Dew PointF,Humidity,Sea Level PressureIn,VisibilityMPH,Wind Direction,Wind SpeedMPH,Gust SpeedMPH,PrecipitationIn,Events,Conditions,WindDirDegrees,DateUTC
12:16 AM,1.4,-16.6,43,30.09,10.0,Calm,Calm,-,N/A,,Mostly Cloudy,0,2013-12-09 09:16:00
12:36 AM,1.4,1.4,100,30.09,10.0,Calm,Calm,-,N/A,,Mostly Cloudy,0,2013-12-09 09:36:00
12:56 AM,1.4,-14.8,47,30.10,10.0,NNE,3.5,-,N/A,,Partly Cloudy,30,2013-12-09 09:56:00
1:16 AM,1.4,-18.4,39,30.10,10.0,NNE,4.6,-,N/A,,Mostly Cloudy,20,2013-12-09 10:16:00
1:36 AM,1.4,-2.2,85,30.10,10.0,Calm,Calm,-,N/A,,Overcast,0,2013-12-09 10:36:00
1:56 AM,-2.2,-9.4,71,30.10,10.0,Calm,Calm,-,N/A,,Overcast,0,2013-12-09 10:56:00
2:16 AM,1.4,-16.6,43,30.11,10.0,Calm,Calm,-,N/A,,Mostly Cloudy,0,2013-12-09 11:16:00
2:36 AM,5.0,-18.4,33,30.11,10.0,ENE,4.6,-,N/A,,Clear,60,2013-12-09 11:36:00
2:56 AM,3.2,-9999,N/A,30.11,10.0,Calm,Calm,-,N/A,,Clear,0,2013-12-09 11:56:00
3:16 AM,1.4,-9.4,61,30.11,10.0,ESE,4.6,-,N/A,,Clear,110,2013-12-09 12:16:00
3:36 AM,-2.2,-9999,N/A,30.12,10.0,Calm,Calm,-,N/A,,Clear,0,2013-12-09 12:36:00
3:56 AM,1.4,-9999,N/A,30.12,10.0,Calm,Calm,-,N/A,,Clear,0,2013-12-09 12:56:00
4:16 AM,1.4,-0.4,92,30.12,10.0,Calm,Calm,-,N/A,,Clear,0,2013-12-09 13:16:00
4:36 AM,1.4,-18.4,39,30.12,10.0,Calm,Calm,-,N/A,,Clear,0,2013-12-09 13:36:00
4:56 AM,-0.4,-14.8,51,30.12,10.0,NNE,3.5,-,N/A,,Clear,30,2013-12-09 13:56:00
5:16 AM,-0.4,-9999,N/A,30.13,10.0,NNE,3.5,-,N/A,,Clear,30,2013-12-09 14:16:00
5:36 AM,1.4,-14.8,47,30.13,10.0,Calm,Calm,-,N/A,,Clear,0,2013-12-09 14:36:00
5:56 AM,-2.2,-27.4,29,30.13,10.0,East,4.6,-,N/A,,Clear,80,2013-12-09 14:56:00
6:16 AM,-2.2,-9999,N/A,30.14,10.0,ENE,4.6,-,N/A,,Clear,70,2013-12-09 15:16:00
6:36 AM,-2.2,-20.2,42,30.14,10.0,ENE,5.8,-,N/A,,Clear,60,2013-12-09 15:36:00
6:56 AM,-0.4,-18.4,43,30.14,10.0,Calm,Calm,-,N/A,,Clear,0,2013-12-09 15:56:00
7:16 AM,-2.2,-7.6,78,30.14,10.0,ENE,6.9,-,N/A,,Clear,70,2013-12-09 16:16:00
7:36 AM,-7.6,-9999,N/A,30.14,10.0,NNE,3.5,-,N/A,,Clear,30,2013-12-09 16:36:00
7:56 AM,-4.0,-9999,N/A,30.14,10.0,North,5.8,-,N/A,,Clear,10,2013-12-09 16:56:00
8:16 AM,-4.0,-9999,N/A,30.14,10.0,NE,4.6,-,N/A,,Clear,40,2013-12-09 17:16:00
8:36 AM,-7.6,-14.8,71,30.14,10.0,East,4.6,-,N/A,,Clear,80,2013-12-09 17:36:00
8:56 AM,-4.0,-16.6,55,30.15,10.0,East,3.5,-,N/A,,Clear,100,2013-12-09 17:56:00
9:16 AM,-2.2,-2.2,100,30.16,10.0,ENE,4.6,-,N/A,,Clear,60,2013-12-09 18:16:00
9:36 AM,-5.8,-9999,N/A,30.16,10.0,NNE,5.8,-,N/A,,Clear,30,2013-12-09 18:36:00
9:56 AM,-2.2,-9999,N/A,30.16,10.0,NNE,3.5,-,N/A,,Clear,30,2013-12-09 18:56:00
10:16 AM,-2.2,-9999,N/A,30.17,10.0,Calm,Calm,-,N/A,,Clear,0,2013-12-09 19:16:00
10:36 AM,-0.4,-16.6,46,30.18,10.0,Calm,Calm,-,N/A,,Clear,0,2013-12-09 19:36:00
10:56 AM,-5.8,-23.8,42,30.18,10.0,Calm,Calm,-,N/A,,Clear,0,2013-12-09 19:56:00
11:16 AM,1.4,-9999,N/A,30.18,10.0,SSE,4.6,-,N/A,,Clear,160,2013-12-09 20:16:00
11:36 AM,-4.0,-29.2,29,30.19,3.0,Calm,Calm,-,N/A,,Clear,0,2013-12-09 20:36:00
11:56 AM,-0.4,-9999,N/A,30.20,0.8,Calm,Calm,-,N/A,,Mostly Cloudy,0,2013-12-09 20:56:00
12:16 PM,-0.4,-0.4,100,30.19,3.0,Calm,Calm,-,N/A,,Mostly Cloudy,0,2013-12-09 21:16:00
12:36 PM,1.4,-23.8,30,30.19,6.0,Calm,Calm,-,N/A,,Overcast,0,2013-12-09 21:36:00
12:56 PM,1.4,-9.4,61,30.20,7.0,Calm,Calm,-,N/A,,Overcast,0,2013-12-09 21:56:00
1:16 PM,-0.4,-2.2,92,30.20,10.0,Calm,Calm,-,N/A,,Overcast,0,2013-12-09 22:16:00
1:36 PM,1.4,-25.6,27,30.19,9.0,Calm,Calm,-,N/A,,Overcast,0,2013-12-09 22:36:00
1:56 PM,1.4,-13.0,51,30.19,9.0,Calm,Calm,-,N/A,,Overcast,0,2013-12-09 22:56:00
2:16 PM,1.4,-9999,N/A,30.18,7.0,Calm,Calm,-,N/A,,Mostly Cloudy,0,2013-12-09 23:16:00
2:36 PM,1.4,-20.2,36,30.18,7.0,Calm,Calm,-,N/A,,Partly Cloudy,0,2013-12-09 23:36:00
2:56 PM,1.4,-22.0,33,30.16,4.0,North,3.5,-,N/A,,Clear,350,2013-12-09 23:56:00
3:16 PM,1.4,-9999,N/A,30.16,9.0,Calm,Calm,-,N/A,,Scattered Clouds,0,2013-12-10 00:16:00
3:36 PM,1.4,-16.6,43,30.16,10.0,North,3.5,-,N/A,,Overcast,350,2013-12-10 00:36:00
3:56 PM,-0.4,-25.6,30,30.16,5.0,Calm,Calm,-,N/A,,Overcast,0,2013-12-10 00:56:00
4:16 PM,-0.4,-9999,N/A,30.15,10.0,Calm,Calm,-,N/A,,Overcast,0,2013-12-10 01:16:00
4:36 PM,1.4,-11.2,56,30.14,10.0,Calm,Calm,-,N/A,,Overcast,0,2013-12-10 01:36:00
4:56 PM,1.4,-25.6,27,30.14,8.0,NNE,4.6,-,N/A,,Overcast,20,2013-12-10 01:56:00
5:16 PM,1.4,1.4,100,30.13,10.0,NNE,5.8,-,N/A,,Overcast,30,2013-12-10 02:16:00
5:36 PM,1.4,-2.2,85,30.12,10.0,NE,5.8,-,N/A,,Overcast,50,2013-12-10 02:36:00
5:56 PM,1.4,-23.8,30,30.11,10.0,NE,4.6,-,N/A,,Overcast,50,2013-12-10 02:56:00
6:16 PM,1.4,-11.2,56,30.12,10.0,NE,3.5,-,N/A,,Overcast,50,2013-12-10 03:16:00
6:36 PM,1.4,-9999,N/A,30.12,10.0,Calm,Calm,-,N/A,,Overcast,0,2013-12-10 03:36:00
6:56 PM,3.2,-18.4,36,30.11,8.0,ESE,4.6,-,N/A,,Overcast,110,2013-12-10 03:56:00
7:16 PM,3.2,-22.0,30,30.10,10.0,East,3.5,-,N/A,,Overcast,100,2013-12-10 04:16:00
7:36 PM,5.0,5.0,100,30.09,4.0,East,4.6,-,N/A,,Overcast,80,2013-12-10 04:36:00
7:56 PM,5.0,-9999,N/A,30.08,4.0,ENE,4.6,-,N/A,,Overcast,70,2013-12-10 04:56:00
8:16 PM,5.0,-14.8,40,30.08,7.0,ENE,5.8,-,N/A,,Overcast,70,2013-12-10 05:16:00
8:36 PM,5.0,-20.2,30,30.07,7.0,East,4.6,-,N/A,,Overcast,80,2013-12-10 05:36:00
8:56 PM,5.0,-4.0,66,30.07,10.0,East,5.8,-,N/A,,Overcast,80,2013-12-10 05:56:00
9:16 PM,5.0,-9999,N/A,30.07,7.0,East,4.6,-,N/A,,Overcast,100,2013-12-10 06:16:00
9:36 PM,5.0,-7.6,56,30.07,5.0,Calm,Calm,-,N/A,,Overcast,0,2013-12-10 06:36:00
9:56 PM,5.0,-18.4,33,30.07,5.0,Calm,Calm,-,N/A,,Overcast,0,2013-12-10 06:56:00
10:16 PM,5.0,-16.6,36,30.06,3.0,East,3.5,-,N/A,,Overcast,80,2013-12-10 07:16:00
10:36 PM,5.0,5.0,100,30.06,6.0,East,3.5,-,N/A,,Overcast,90,2013-12-10 07:36:00
10:56 PM,6.8,-9999,N/A,30.06,3.0,Calm,Calm,-,N/A,,Overcast,0,2013-12-10 07:56:00
11:16 PM,6.8,-7.6,52,30.06,2.0,East,5.8,-,N/A,,Overcast,80,2013-12-10 08:16:00
11:36 PM,6.8,-18.4,31,30.06,2.5,East,6.9,-,N/A,,Overcast,80,2013-12-10 08:36:00
11:56 PM,6.8,-16.6,34,30.06,10.0,ENE,5.8,-,N/A,,Overcast,70,2013-12-10 08:56:00